Regional Weather Roundup
Issued by NWS Sioux Falls, SD

Home | Current Version | Previous Version | Graphics & Text | Print | Product List | Glossary On
Versions: 1 2 3 4 5 6 7 8 9 10 11 12 13 14 15 16 17 18 19 20 21 22 23 24 25 26 27 28 29 30 31 32 33 34 35 36 37 38 39 40 41 42 43 44 45 46 47 48 49 50
090
ASUS43 KFSD 280810
RWRFSD

WEATHER ROUNDUP FOR SE SOUTH DAKOTA/SW MINNESOTA/NW IOWA
NATIONAL WEATHER SERVICE SIOUX FALLS SD
300 AM CDT TUE MAR 28 2017

NOTE: "FAIR" INDICATES FEW OR NO CLOUDS BELOW 12,000 FEET WITH NO
SIGNIFICANT WEATHER AND OR OBSTRUCTIONS TO VISIBILITY.


SDZ038>040-050-052>070-280900-
SOUTHEAST SOUTH DAKOTA

CITY           SKY/WX    TMP DP  RH WIND       PRES   REMARKS
BROOKINGS      CLOUDY    40  35  83 E5        30.05R
CHAMBERLAIN    CLOUDY    48  41  79 E6        30.00S
HURON          CLOUDY    39  36  89 SE8       30.04R
MADISON        PTSUNNY   39  39 100 S6        30.05R
MITCHELL       CLEAR     37  36  96 SE6       30.04F
SIOUX FALLS    CLEAR     34  33  96 CALM      30.06R
WINNER         CLOUDY    47  39  74 SE9       29.99R
YANKTON        CLOUDY    43  37  81 SE7       30.05R
$$

MNZ071-072-080-081-089-090-097-098-280900-
SOUTHWEST MINNESOTA

CITY           SKY/WX    TMP DP  RH WIND       PRES   REMARKS
FAIRMONT       FOG       36  36 100 NW3       30.07R VSB 3/4
JACKSON        MOCLDY    36  34  93 CALM      30.07R
LUVERNE        CLOUDY    34  32  93 CALM      30.07S
MARSHALL       CLOUDY    39  36  89 SW5       30.06S
MONTEVIDEO     CLOUDY    37  32  81 NE5       30.08R
PIPESTONE      CLOUDY    37  34  87 CALM      30.06R
REDWOOD FALLS  MOCLDY    42  33  70 W3        30.06R
TRACY          CLOUDY    43  39  86 SW7       30.06R
WINDOM         PTCLDY    36  36 100 W5        30.06R
WORTHINGTON    CLOUDY    36  34  92 W8        30.06S
$$

IAZ001>003-012>014-020>022-031-032-NEZ013-014-SDZ071-280900-
NORTHWEST IOWA

CITY           SKY/WX    TMP DP  RH WIND       PRES   REMARKS
CHEROKEE       CLEAR     34  34 100 NE3       30.06S
DENISON        CLOUDY    45  41  87 CALM      30.06R
ESTHERVILLE    CLEAR     35  35 100 NW9       30.05R WCI  28
LE MARS        PTCLDY    32  32 100 CALM      30.07S FOG
ORANGE CITY    PTCLDY    39  37  93 CALM      30.06S
SHELDON        CLOUDY    34  32  93 CALM      30.05R
SIOUX CITY     CLEAR     34  33  96 CALM      30.06S
SPENCER        CLOUDY    31  30  96 NW3       30.06R
STORM LAKE     CLEAR     41  39  93 CALM      30.05R
$$

ABBREVIATIONS USED IN REMARKS
   TC - TEMPERATURE IN CELSIUS
  WCI - WIND CHILL INDEX
   HX - HEAT INDEX
  VSB - VISIBILITY





USA.gov is the U.S. government's official web portal to all federal, state and local government web resources and services.